Location: Eschentzwiller
(47.7125°N, 7.3981°E)
Time: 04:36:16
(UTC+00:00)

USA 308 - Pass Details

Date: 27 October 2020
Orbit: 571 x 578 km, 54.0° (Epoch: 30 November)

Event Time Altitude Azimuth Distance (km) Brightness Sun altitude
Rises 18:38:16 0° 299° (WNW) 2,787 7.5 -23.8°
Reaches altitude 10° 18:40:32 10° 298° (WNW) 1,885 6.5 -24.1°
Enters shadow 18:44:31 71° 255° (WSW) 609 3.0 -24.8°
